Simultaneous Nadir Overpasses (SNOs) Predictions

Prediction of SNOs between NOAA-20 and METOP-C Satellite Orbit:

Table of predicted SNOs for the next 14.0 days since TLE Epoch: 11/23/2018
Index Date (NOAA-20) Time (NOAA-20) Lat,Lon (NOAA-20) SZA (NOAA-20 ) Date (METOP-C) Time (METOP-C) Lat,Lon (METOP-C) SZA (METOP-C ) Distance(km) Time Diff (sec)
1 12/07/2018 17:32:44 -73.49, 86.91 83.81 12/07/2018 17:33:50 -73.43, 89.81 83.96 91.95 66
2 12/07/2018 18:23:22 73.15,-105.02 95.84 12/07/2018 18:24:32 73.09,-103.60 95.72 46.23 70
3 12/07/2018 19:14:02 -72.95, 62.74 84.38 12/07/2018 19:15:15 -72.91, 63.35 84.45 20.41 73
4 12/07/2018 20:04:44 72.75,-129.54 95.42 12/07/2018 20:05:54 72.77,-129.60 95.43 2.36 70
5 12/07/2018 20:55:28 -72.75, 37.78 84.58 12/07/2018 20:56:34 -72.74, 37.69 84.60 3.21 66




NCC Satellite Simultaneous Nadir Overpasses (SNOs) Prediction Service
